User: anonymous   Login
Location: Unspecified
(0.0000°N, 0.0000°E)
Time: 13:05:27
(UTC+00:00)
Language:

Tiros 10 - Orbit

View from above orbital plane
View from above orbital plane
View from above satellite
View from above satellite

Ground track
Ground track

The orbit data is extracted from the following two-line orbital elements,

1  1430U 65051A   17234.02275034 -.00000009 +00000-0 +10066-4 0  9992
2  1430 098.1507 025.0286 0057582 056.9590 303.7112 14.40196495732130
Epoch (UTC): 22 August 2017 00:32:45
Eccentricity: 0.0057582
inclination: 98.1507°
perigee height: 717 km
apogee height: 799 km
right ascension of ascending node: 25.0286°
argument of perigee: 56.9590°
revolutions per day: 14.40196495
mean anomaly at epoch: 303.7112°
orbit number at epoch: 73213

The dashed part of the orbit path shows where the satellite is in the earth's shadow,  

DLR